Content
SEND FEEDBACK

Daily
Averages
Monthly
Summary
Spain

SANTA CRUZ DE TENERIFE, SPAIN


Home > Europe > Spain
Elevation: 151 feet     Latitude: 28 27N     Longitude: 016 15W

WEATHER
 
SELECT A DAY
Number of Records: 209,063;   Date Range: 7/1/96 - 9/28/14
 
SHARE

PRINT THIS DATA

[ ← Previous Day ]
WEATHER ALMANAC - JULY 3, 2013
[ Next Day → ]
[ °C ]   °F
Weather ElementAverageHighLow
Temperature68 °F80.6 °F (4:00 pm)57.2 °F (7:00 am)
Dewpoint55.6 °F59 °F (9:30 am)44.6 °F (8:30 pm)
Humidity66 %94 % (10:00 pm)38 % (8:30 pm)
Barometer30.14 in30.18 in (10:30 am)30.12 in (6:30 am)
Wind Speed10.5 mph18.4 mph (2:30 pm)
Weather ElementAverage
Visibility6.2 mi
Wind DirectionWSW (250.9 °)

Weather ElementTotal
Precipitation---
Cooling Degree Days3.9 (Base 65)
Growing Degree Days18.9 (Base 50)
Averaged from 32 records on July 3, 2013
WEATHER CONDITIONS BREAKOUT
WIND DIRECTION BREAKOUT
WEATHER BY HOUR - JULY 3, 2013
[ °C ]   °F
Local TimeTemperatureDewpointHumidityBarometerVisibilityWind DirectionWind SpeedGust SpeedPrecipitationEventsConditions
6:30 AM59.0 °F50.0 °F72 %30.12 in6.2 miWest (280°)5.8 mphPartly Cloudy
7:00 AM57.2 °F46.4 °F67 %30.12 in6.2 miWest (270°)3.5 mphPartly Cloudy
7:30 AM60.8 °F53.6 °F77 %30.12 in6.2 miWest (260°)11.5 mphPartly Cloudy
8:00 AM64.4 °F50.0 °F59 %30.12 in6.2 miWest (270°)9.2 mphFog
8:30 AM64.4 °F55.4 °F73 %30.12 in6.2 miWest (280°)9.2 mphPartly Cloudy
9:00 AM60.8 °F57.2 °F88 %30.15 in6.2 miWest (270°)11.5 mphPartly Cloudy
9:30 AM62.6 °F59.0 °F88 %30.15 in6.2 miWNW (290°)11.5 mphPartly Cloudy
10:00 AM64.4 °F59.0 °F83 %30.15 in6.2 miWNW (290°)13.8 mphPartly Cloudy
10:30 AM64.4 °F57.2 °F77 %30.18 in6.2 miWNW (290°)13.8 mphPartly Cloudy
11:00 AM64.4 °F57.2 °F77 %30.18 in6.2 miWNW (290°)13.8 mphPartly Cloudy
11:30 AM66.2 °F57.2 °F73 %30.18 in6.2 miWNW (290°)12.7 mphPartly Cloudy
12:00 PM69.8 °F57.2 °F64 %30.15 in6.2 miWNW (290°)11.5 mphPartly Cloudy
12:30 PM69.8 °F57.2 °F64 %30.15 inWest (280°)11.5 mphClear
1:00 PM71.6 °F55.4 °F57 %30.15 inWNW (290°)11.5 mphClear
1:30 PM73.4 °F55.4 °F53 %30.15 inWNW (290°)12.7 mphClear
2:00 PM69.8 °F57.2 °F64 %30.15 inWNW (290°)17.3 mphClear
2:30 PM71.6 °F57.2 °F60 %30.12 inWNW (290°)18.4 mphClear
3:00 PM73.4 °F55.4 °F53 %30.12 inWest (280°)11.5 mphClear
3:30 PM78.8 °F53.6 °F42 %30.12 inVariable3.5 mphClear
4:00 PM80.6 °F57.2 °F45 %30.12 in6.2 miEast (90°)5.8 mphPartly Cloudy
4:30 PM77.0 °F59.0 °F54 %30.12 in6.2 miVariable4.6 mphPartly Cloudy
5:00 PM71.6 °F59.0 °F64 %30.12 in6.2 miWNW (290°)10.4 mphPartly Cloudy
5:30 PM69.8 °F59.0 °F68 %30.12 inWNW (290°)12.7 mphClear
6:00 PM66.2 °F59.0 °F78 %30.12 in6.2 miWNW (290°)13.8 mphPartly Cloudy
6:30 PM69.8 °F59.0 °F68 %30.12 in6.2 miWNW (290°)11.5 mphPartly Cloudy
7:00 PM73.4 °F53.6 °F50 %30.12 in6.2 miWNW (290°)8.1 mphPartly Cloudy
7:30 PM68.0 °F57.2 °F68 %30.12 in6.2 miWest (280°)10.4 mphPartly Cloudy
8:00 PM66.2 °F59.0 °F78 %30.12 in6.2 miWNW (290°)17.3 mphPartly Cloudy
8:30 PM71.6 °F44.6 °F38 %30.12 inWest (280°)6.9 mphClear
9:00 PM69.8 °F46.4 °F43 %30.12 inVariable1.2 mphClear
9:30 PM64.4 °F55.4 °F73 %30.15 in6.2 miWest (270°)9.2 mphFog
10:00 PM60.8 °F59.0 °F94 %30.15 in5.6 miWest (280°)10.4 mphPartly Cloudy
Hourly data recorded from GCXO, located miles away from Santa Cruz de Tenerife, Spain







STORIES FROM OUR PARTNERS